Terminal Aerodrome Forecast
Issued by NWS

Home | Current Version | Previous Version | Text Only | Print | Product List | Glossary Off
Versions: 1 2 3 4 5 6 7 8 9 10 11

000
FTUS43 KUNR 171700
TAFGCC
TAF
KGCC 171725Z 1718/1818 VRB04KT P6SM SKC
     FM180100 21005KT P6SM FEW100=

USA.gov is the U.S. government's official web portal to all federal, state and local government web resources and services.